Regional Weather Roundup
Issued by NWS Mt. Holly, NJ

Home | Current Version | Previous Version | Text Only | Print | Product List | Glossary On
Versions: 1 2 3 4 5 6 7 8 9 10 11 12 13 14 15 16 17 18 19 20 21 22 23 24 25 26 27
000
ASUS41 KPHI 010212
RWRPHI

REGIONAL WEATHER ROUNDUP
NATIONAL WEATHER SERVICE MOUNT HOLLY NJ
1000 PM EDT SUN APR 30 2017

NOTE:  "FAIR" INDICATES FEW OR NO CLOUDS BELOW 12,000 FEET WITH NO
SIGNIFICANT WEATHER AND/OR OBSTRUCTIONS TO VISIBILITY.

 * = STATION DOES NOT REPORT PRECIPITATION (E.G. RAIN, SNOW, ETC.)
        OR FOG.

NJZ015>026-010300-
SOUTHERN NEW JERSEY

CITY           SKY/WX    TMP DP  RH WIND       PRES   REMARKS
POMONA         CLOUDY    52  32  46 E12       30.13F FOG
WILDWOOD*      CLOUDY    54  53  97 NE15      30.11F FOG
MILLVILLE      CLOUDY    54  52  93 E12       30.11F
WRIGHTSTOWN    CLOUDY    49  47  92 E10       30.12F FOG
MOUNT HOLLY    CLOUDY    50  48  93 E8        30.14F
TRENTON        CLOUDY    51  47  86 E9        30.15F

$$
NJZ001>014-010300-
NORTHERN NEW JERSEY

CITY           SKY/WX    TMP DP  RH WIND       PRES   REMARKS
SUSSEX         CLOUDY    55  42  61 SE5       30.17S
ANDOVER*         N/A     52  40  63 VRB7      30.16F
MORRISTOWN     CLOUDY    52  41  66 S7        30.19R
NEWARK         CLOUDY    53  42  66 E9        30.19R
TETERBORO      CLOUDY    53  40  61 E8        30.18S
CALDWELL       CLOUDY    54  39  57 SE7       30.19R
SOMERVILLE     CLOUDY    52  43  71 E6        30.15F
ALLAIRE*       CLOUDY    49  47  93 E14       30.19R
TOMS RIVER*    LGT RAIN  50  48  93 E8        30.16F FOG

$$
PAZ043-044-047-054-055-060>062-066>071-010300-
EASTERN PENNSYLVANIA

CITY           SKY/WX    TMP DP  RH WIND       PRES   REMARKS
PHILADELPHIA   CLOUDY    53  49  86 E13       30.13F
NORTH PHILA    CLOUDY    52  48  86 E14       30.16F
BLUE BELL*     CLOUDY    50  46  87 E9        30.14F
DOYLESTOWN     CLOUDY    51  47  86 CALM      30.13F
QUAKERTOWN*    CLOUDY    52  45  76 E8        30.14F
PERKASIE*      CLOUDY    50  46  87 E6G16     30.14F
POTTSTOWN      CLOUDY    52  46  80 VRB7      30.13F
LANCASTER      MOCLDY    59  51  75 E12       30.08S
COATESVILLE    CLOUDY    55  50  82 E17G24    30.11S
READING        CLOUDY    57  47  69 E8        30.09F
ALLENTOWN      CLOUDY    53  43  68 E13       30.13F
MOUNT POCONO   CLOUDY    47  40  76 SE15      30.12F
HAZLETON       CLOUDY    52  41  66 SE8G21    30.11F
LEHIGHTON      CLOUDY    54  41  62 E8        30.13F
WILKES BARRE   CLOUDY    56  41  57 VRB5      30.08S

$$
DEZALL-MDZ008-012-015-019-020-010300-
DELAWARE AND EASTERN MARYLAND

CITY           SKY/WX    TMP DP  RH WIND       PRES   REMARKS
WILMINGTON     CLOUDY    56  51  84 E14       30.11F
DOVER          CLOUDY    57  57 100 NE13      30.10F
GEORGETOWN     CLOUDY    59  57  93 NE13      30.10R FOG
EASTON         CLEAR     64  59  82 E9        30.11R
ABERDEEN       CLEAR     59  54  83 E13       30.09S
PATUXENT       CLEAR     77  67  71 S7        30.04R
OCEAN CITY     CLEAR     69  65  86 SW7       30.09S
WALLOPS ISLAND CLEAR     68  66  93 S17       30.08F
CAMBRIDGE        N/A     72  66  83 CALM      30.06R
SALISBURY      CLEAR     72  66  81 S6        30.06S

$$
PAZ001-021-NYZ056-072-MDZ011-DCZ001-010300-
OTHER NEARBY LOCATIONS

CITY           SKY/WX    TMP DP  RH WIND       PRES   REMARKS
HARRISBURG     MOCLDY    63  50  62 E15G22    30.05R
WILLIAMSPORT   CLOUDY    65  47  52 E12G26    30.02R
BINGHAMTON     PTCLDY    56  44  64 SE13      30.01F
NEW YORK CITY  CLOUDY    53  39  59 VRB3      30.22R
BALTIMORE      MOCLDY    64  61  90 E12       30.06R
WASHINGTON DC  PTCLDY    78  65  63 SE6       30.03R

$$




USA.gov is the U.S. government's official web portal to all federal, state and local government web resources and services.